Indian Lake, NY

5:25 PM EDT on July 26, 2017 (GMT -0400)
Johnson Hill | | Change Station

Elev 1719 ft 43.76 °N, 74.27 °W | Updated 1 minute ago

Overcast
Overcast
65.5 °F
Feels Like 65.5 °F
N
0.0
Wind Variable Wind from SW

Today
High -- | Low -- °F
--% Chance of Precip.
Yesterday
High -- | Low -- °F
Precip. -- in
Pressure 30.12 in
Visibility 10.0 miles
Clouds Few 3300 ft
Overcast 4700 ft
Dew Point 59 °F
Humidity 81%
Rainfall 0.00 in
Snow Depth Not available.
5:39 AM 8:26 PM
Waxing Crescent, 15% visible
METAR KSLK 262051Z AUTO 25007KT 10SM FEW033 OVC047 20/14 A3012 RMK AO2 SLP200 T02000144 58015
Pressure 30.12 in
Visibility 10.0 miles
Clouds Few 3300 ft
Overcast 4700 ft
Dew Point 59 °F
Humidity 81%
Rainfall 0.00 in
Snow Depth Not available.
5:39 AM 8:26 PM
Waxing Crescent, 15% visible
METAR KSLK 262051Z AUTO 25007KT 10SM FEW033 OVC047 20/14 A3012 RMK AO2 SLP200 T02000144 58015

Get Severe Weather Alerts

Thanks for signing up!

Be on the lookout for a verification email in your inbox.

You'll start receiving the daily forecast at 6 AM.

×

10-Day Weather Forecast

Almanac

Astronomy

Jul. 26, 2017 Rise Set
Actual Time
Civil Twilight
Nautical Twilight
Astronomical Twilight
Moon
Length of Visible Light
Length of Day
Tomorrow will be .
, % of the Moon is Illuminated

Today's Extremes

State Highs State Lows

Community

WunderPhotos

Category 6

Welcome to Category 6. This is the collective home for Weather Underground's featured writeups by Dr. Jeff Masters (right), Bob Henson (left), Chris Burt, and other regular contributors.

Nearby

Air Quality

  Air Quality AQ Index Pollutant
Not available.

Snow Depth

Station Depth Elevation

Earthquake Activity

City Distance Mag. Time & Date
Minimum magnitude displayed is 2.5.

Coastal Water Temperatures

Place Temperature

Stations

Nearby Weather Stations

Station Location Temp. Windchill Dew Point Humidity Wind Precip. Elev Updated Type
                   

Watches & Warnings

There are currently no watches in effect.